EWG2R LIMC-EDDH

Flight info

Callsign EWG2R
Flight time 1h 18m
Altitude 36000
Route SRN6LXPEPAG2Q/35R PEPAG DCT ABESI N851 UTAVO DCT ROLSA DCT LOKTA DCT TEDGO DCT HAREM DCT LOHRE DCT MASEK DCT ELNAT P605 NOLGO NOLGO6A
Aircraft A321/M-SDE3FGHIRWY/LB1

Departure

Time 2026-04-20 15:21
Airport Milan Malpensa International Airport (LIMC)

Arrival

Time 2026-04-20 16:39
Airport Hamburg Helmut Schmidt Airport (EDDH)
Time Latitude Longitude Altitude Speed Heading
2026-04-20 15:02 45.62380 8.71719 753 ft 0 kts 349°
2026-04-20 15:06 45.62362 8.71724 749 ft 4 kts 345°
2026-04-20 15:07 45.62336 8.71733 751 ft 4 kts 354°
2026-04-20 15:07 45.62315 8.71726 750 ft 4 kts 54°
2026-04-20 15:07 45.62308 8.71709 748 ft 2 kts 78°
2026-04-20 15:07 45.62314 8.71744 750 ft 4 kts 78°
2026-04-20 15:08 45.62319 8.71782 752 ft 4 kts 78°
2026-04-20 15:08 45.62324 8.71815 749 ft 1 kts 79°
2026-04-20 15:13 45.62324 8.71816 749 ft 1 kts 79°
2026-04-20 15:13 45.62330 8.71862 753 ft 8 kts 79°
2026-04-20 15:13 45.62291 8.71926 751 ft 12 kts 161°
2026-04-20 15:14 45.62181 8.71959 752 ft 20 kts 169°
2026-04-20 15:14 45.62035 8.72000 749 ft 22 kts 169°
2026-04-20 15:14 45.61885 8.72041 749 ft 23 kts 169°
2026-04-20 15:14 45.61724 8.72085 752 ft 23 kts 169°
2026-04-20 15:15 45.61563 8.72130 753 ft 24 kts 169°
2026-04-20 15:15 45.61398 8.72176 750 ft 24 kts 169°
2026-04-20 15:15 45.61230 8.72222 752 ft 25 kts 168°
2026-04-20 15:15 45.61059 8.72268 753 ft 25 kts 173°
2026-04-20 15:16 45.60888 8.72317 750 ft 25 kts 168°
2026-04-20 15:16 45.60727 8.72361 752 ft 21 kts 169°
2026-04-20 15:16 45.60640 8.72471 749 ft 18 kts 101°
2026-04-20 15:16 45.60625 8.72662 750 ft 20 kts 96°
2026-04-20 15:17 45.60609 8.72877 749 ft 23 kts 96°
2026-04-20 15:17 45.60592 8.73102 752 ft 19 kts 96°
2026-04-20 15:17 45.60634 8.73269 751 ft 18 kts 44°
2026-04-20 15:17 45.60745 8.73334 754 ft 19 kts 24°
2026-04-20 15:18 45.60876 8.73402 751 ft 20 kts
2026-04-20 15:18 45.61019 8.73374 751 ft 22 kts 349°
2026-04-20 15:18 45.61177 8.73330 753 ft 24 kts 349°
2026-04-20 15:18 45.61346 8.73283 750 ft 25 kts 349°
2026-04-20 15:19 45.61518 8.73235 753 ft 21 kts 349°
2026-04-20 15:19 45.61608 8.73261 752 ft 12 kts 70°
2026-04-20 15:19 45.61633 8.73393 748 ft 15 kts 85°
2026-04-20 15:19 45.61592 8.73531 751 ft 16 kts 113°
2026-04-20 15:20 45.61599 8.73694 744 ft 18 kts 62°
2026-04-20 15:20 45.61729 8.73705 746 ft 33 kts 350°
2026-04-20 15:20 45.62213 8.73571 746 ft 108 kts 349°
2026-04-20 15:20 45.63168 8.73306 744 ft 168 kts 349°
2026-04-20 15:21 45.64371 8.72987 1286 ft 176 kts 348°
2026-04-20 15:21 45.65591 8.72694 2010 ft 181 kts 349°
2026-04-20 15:21 45.66913 8.72593 2369 ft 201 kts 359°
2026-04-20 15:21 45.68393 8.72587 2602 ft 224 kts 359°
2026-04-20 15:22 45.69981 8.72581 3022 ft 237 kts 360°
2026-04-20 15:22 45.71630 8.72709 3644 ft 240 kts 14°
2026-04-20 15:22 45.73016 8.73986 4249 ft 243 kts 52°
2026-04-20 15:22 45.73716 8.76225 4768 ft 253 kts 77°
2026-04-20 15:23 45.74096 8.78788 5181 ft 271 kts 79°
2026-04-20 15:23 45.74464 8.81467 5876 ft 277 kts 79°
2026-04-20 15:23 45.74831 8.84196 6615 ft 282 kts 79°
2026-04-20 15:23 45.75199 8.86928 7364 ft 284 kts 78°
2026-04-20 15:24 45.75585 8.89766 8114 ft 289 kts 78°
2026-04-20 15:24 45.75967 8.92565 8859 ft 292 kts 78°
2026-04-20 15:24 45.76366 8.95471 9624 ft 295 kts 78°
2026-04-20 15:24 45.76767 8.98400 10126 ft 309 kts 77°
2026-04-20 15:25 45.77194 9.01525 10286 ft 332 kts 77°
2026-04-20 15:25 45.77652 9.04880 10414 ft 354 kts 77°
2026-04-20 15:25 45.78128 9.08375 10719 ft 368 kts 77°
2026-04-20 15:25 45.78889 9.11886 11235 ft 371 kts 62°
2026-04-20 15:26 45.80303 9.15025 11838 ft 371 kts 45°
2026-04-20 15:26 45.82242 9.17434 12446 ft 369 kts 28°
2026-04-20 15:26 45.84548 9.18979 12987 ft 366 kts 12°
2026-04-20 15:26 45.87035 9.19565 13638 ft 362 kts 357°
2026-04-20 15:27 45.89523 9.19205 14208 ft 358 kts 342°
2026-04-20 15:27 45.91804 9.17955 14779 ft 356 kts 328°
2026-04-20 15:27 45.93797 9.15880 15382 ft 355 kts 314°
2026-04-20 15:27 45.95372 9.13159 15944 ft 355 kts 304°
2026-04-20 15:28 45.97002 9.10477 16488 ft 360 kts 315°
2026-04-20 15:28 45.99036 9.08335 17076 ft 367 kts 327°
2026-04-20 15:28 46.01404 9.06884 17618 ft 375 kts 339°
2026-04-20 15:28 46.04000 9.06223 18207 ft 382 kts 348°
2026-04-20 15:29 46.06652 9.05810 18622 ft 385 kts 348°
2026-04-20 15:29 46.09317 9.05381 19064 ft 386 kts 348°
2026-04-20 15:29 46.11993 9.04943 19550 ft 388 kts 348°
2026-04-20 15:29 46.14682 9.04499 20047 ft 391 kts 348°
2026-04-20 15:30 46.17392 9.04057 20517 ft 393 kts 348°
2026-04-20 15:30 46.20122 9.03657 21011 ft 396 kts 348°
2026-04-20 15:30 46.22871 9.03291 21524 ft 398 kts 349°
2026-04-20 15:30 46.25637 9.02939 22001 ft 400 kts 349°
2026-04-20 15:31 46.28419 9.02588 22488 ft 402 kts 349°
2026-04-20 15:31 46.31221 9.02228 22940 ft 405 kts 349°
2026-04-20 15:31 46.34041 9.01855 23325 ft 410 kts 348°
2026-04-20 15:31 46.36888 9.01473 23770 ft 411 kts 348°
2026-04-20 15:32 46.39744 9.01087 24176 ft 413 kts 348°
2026-04-20 15:32 46.42609 9.00698 24606 ft 415 kts 348°
2026-04-20 15:32 46.45498 9.00305 24977 ft 418 kts 349°
2026-04-20 15:32 46.48395 8.99917 25281 ft 419 kts 348°
2026-04-20 15:33 46.51267 8.99536 25645 ft 421 kts 348°
2026-04-20 15:33 46.54226 8.99143 26063 ft 422 kts 348°
2026-04-20 15:33 46.57161 8.98750 26448 ft 425 kts 348°
2026-04-20 15:33 46.60041 8.98360 26753 ft 428 kts 348°
2026-04-20 15:34 46.63053 8.97950 27160 ft 429 kts 347°
2026-04-20 15:34 46.65990 8.97551 27544 ft 429 kts 347°
2026-04-20 15:34 46.69004 8.97142 27866 ft 430 kts 347°
2026-04-20 15:34 46.71987 8.96735 28193 ft 432 kts 347°
2026-04-20 15:35 46.74951 8.96328 28499 ft 434 kts 347°
2026-04-20 15:35 46.78003 8.95911 28770 ft 435 kts 347°
2026-04-20 15:35 46.81016 8.95501 29178 ft 434 kts 347°
2026-04-20 15:35 46.83978 8.95103 29589 ft 432 kts 347°
2026-04-20 15:36 46.86962 8.94702 29859 ft 430 kts 347°
2026-04-20 15:36 46.89935 8.94298 30192 ft 429 kts 347°
2026-04-20 15:36 46.92899 8.93892 30452 ft 428 kts 346°
2026-04-20 15:36 46.95863 8.93484 30750 ft 427 kts 347°
2026-04-20 15:37 46.98824 8.93076 31098 ft 427 kts 347°
2026-04-20 15:37 47.01768 8.92673 31490 ft 425 kts 347°
2026-04-20 15:37 47.04714 8.92269 31824 ft 425 kts 347°
2026-04-20 15:37 47.07661 8.91865 32183 ft 424 kts 347°
2026-04-20 15:38 47.10593 8.91465 32501 ft 424 kts 347°
2026-04-20 15:38 47.13527 8.91064 32812 ft 423 kts 347°
2026-04-20 15:38 47.16460 8.90658 33120 ft 423 kts 347°
2026-04-20 15:38 47.19387 8.90251 33417 ft 422 kts 347°
2026-04-20 15:39 47.22309 8.89841 33708 ft 422 kts 347°
2026-04-20 15:39 47.25229 8.89429 34020 ft 422 kts 348°
2026-04-20 15:39 47.28177 8.89195 34228 ft 428 kts 355°
2026-04-20 15:39 47.31165 8.89645 34428 ft 437 kts
2026-04-20 15:40 47.34147 8.90617 34612 ft 440 kts
2026-04-20 15:40 47.37133 8.91611 34849 ft 439 kts
2026-04-20 15:40 47.40111 8.92595 35084 ft 439 kts
2026-04-20 15:40 47.43093 8.93577 35311 ft 438 kts
2026-04-20 15:41 47.46067 8.94557 35556 ft 438 kts
2026-04-20 15:41 47.49047 8.95541 35775 ft 438 kts
2026-04-20 15:41 47.52021 8.96528 35982 ft 439 kts
2026-04-20 15:42 47.57989 8.98517 36057 ft 440 kts
2026-04-20 15:42 47.63963 9.00508 36058 ft 440 kts
2026-04-20 15:43 47.69930 9.02498 36055 ft 439 kts
2026-04-20 15:43 47.75883 9.04490 36059 ft 439 kts
2026-04-20 15:44 47.81841 9.06489 36063 ft 439 kts
2026-04-20 15:44 47.87800 9.08497 36092 ft 439 kts
2026-04-20 15:45 47.93770 9.10509 36089 ft 440 kts
2026-04-20 15:45 47.99736 9.12524 36097 ft 440 kts
2026-04-20 15:46 48.05707 9.14546 36100 ft 440 kts
2026-04-20 15:46 48.11629 9.16561 36096 ft 438 kts
2026-04-20 15:47 48.17578 9.18439 36091 ft 433 kts
2026-04-20 15:47 48.23564 9.19439 36097 ft 433 kts
2026-04-20 15:48 48.29556 9.20441 36122 ft 433 kts 360°
2026-04-20 15:48 48.35537 9.21450 36096 ft 432 kts 360°
2026-04-20 15:49 48.41550 9.22468 36093 ft 432 kts 360°
2026-04-20 15:49 48.47495 9.23475 36095 ft 433 kts 360°
2026-04-20 15:50 48.53480 9.24487 36103 ft 433 kts 360°
2026-04-20 15:50 48.59471 9.25508 36107 ft 433 kts 360°
2026-04-20 15:51 48.65456 9.26510 36108 ft 433 kts 359°
2026-04-20 15:51 48.71445 9.27414 36128 ft 432 kts 359°
2026-04-20 15:52 48.77440 9.28300 36116 ft 433 kts 359°
2026-04-20 15:52 48.83441 9.29215 36110 ft 433 kts 359°
2026-04-20 15:53 48.92437 9.30597 36106 ft 433 kts 359°
2026-04-20 15:53 48.98453 9.31524 36109 ft 435 kts 359°
2026-04-20 15:54 49.03457 9.32299 36107 ft 435 kts 359°
2026-04-20 15:54 49.09489 9.33236 36110 ft 436 kts 359°
2026-04-20 15:55 49.15526 9.34172 36134 ft 436 kts 359°
2026-04-20 15:55 49.21569 9.35109 36124 ft 437 kts 359°
2026-04-20 15:56 49.27617 9.36057 36120 ft 437 kts 359°
2026-04-20 15:56 49.33667 9.36999 36115 ft 437 kts 359°
2026-04-20 15:57 49.39719 9.37959 36135 ft 438 kts 359°
2026-04-20 15:57 49.45778 9.38912 36125 ft 438 kts 359°
2026-04-20 15:58 49.51846 9.39854 36125 ft 438 kts 359°
2026-04-20 15:58 49.57915 9.40807 36123 ft 439 kts 359°
2026-04-20 15:59 49.64025 9.41778 36130 ft 439 kts 360°
2026-04-20 15:59 49.70111 9.42749 36125 ft 440 kts 360°
2026-04-20 16:00 49.76198 9.43730 36119 ft 440 kts 360°
2026-04-20 16:00 49.82286 9.44715 36147 ft 440 kts
2026-04-20 16:01 49.88383 9.45682 36131 ft 441 kts
2026-04-20 16:01 49.94489 9.46659 36124 ft 441 kts
2026-04-20 16:02 50.00601 9.47642 36126 ft 442 kts
2026-04-20 16:02 50.06722 9.48645 36139 ft 443 kts
2026-04-20 16:03 50.12859 9.49666 36128 ft 444 kts
2026-04-20 16:03 50.18995 9.50689 36125 ft 444 kts
2026-04-20 16:04 50.25141 9.51727 36128 ft 444 kts
2026-04-20 16:04 50.31253 9.52752 36141 ft 445 kts
2026-04-20 16:05 50.37410 9.53778 36137 ft 445 kts
2026-04-20 16:05 50.43572 9.54820 36134 ft 446 kts
2026-04-20 16:06 50.49738 9.55878 36156 ft 446 kts
2026-04-20 16:06 50.55908 9.56927 36147 ft 446 kts
2026-04-20 16:07 50.62084 9.57972 36154 ft 447 kts
2026-04-20 16:07 50.68268 9.59027 36159 ft 447 kts
2026-04-20 16:08 50.74456 9.60094 36159 ft 447 kts
2026-04-20 16:08 50.80641 9.61270 36161 ft 448 kts
2026-04-20 16:09 50.86819 9.62500 36165 ft 448 kts
2026-04-20 16:09 50.93006 9.63725 36161 ft 448 kts
2026-04-20 16:10 50.99193 9.64926 36168 ft 448 kts
2026-04-20 16:10 51.05381 9.66132 36168 ft 448 kts
2026-04-20 16:11 51.11574 9.67357 36164 ft 449 kts
2026-04-20 16:11 51.17771 9.68574 36185 ft 449 kts
2026-04-20 16:12 51.23970 9.69748 36181 ft 448 kts
2026-04-20 16:12 51.30175 9.70740 36178 ft 448 kts
2026-04-20 16:13 51.36384 9.71690 36185 ft 448 kts
2026-04-20 16:13 51.42585 9.72671 36193 ft 448 kts
2026-04-20 16:14 51.48749 9.73683 36189 ft 448 kts
2026-04-20 16:14 51.54942 9.74835 36187 ft 448 kts
2026-04-20 16:15 51.61131 9.76053 36186 ft 448 kts
2026-04-20 16:15 51.67321 9.77257 36192 ft 448 kts
2026-04-20 16:16 51.73507 9.78442 36190 ft 448 kts
2026-04-20 16:16 51.79691 9.79611 36186 ft 447 kts
2026-04-20 16:17 51.85871 9.80776 36187 ft 447 kts
2026-04-20 16:17 51.92043 9.81967 36189 ft 447 kts
2026-04-20 16:18 51.98217 9.83180 36185 ft 447 kts
2026-04-20 16:18 52.04389 9.84385 36184 ft 447 kts
2026-04-20 16:19 52.10568 9.85584 36184 ft 447 kts
2026-04-20 16:19 52.16746 9.86789 36176 ft 447 kts
2026-04-20 16:20 52.22937 9.87996 36177 ft 448 kts
2026-04-20 16:20 52.29027 9.90131 36180 ft 449 kts 14°
2026-04-20 16:21 52.35069 9.92801 36185 ft 450 kts 14°
2026-04-20 16:21 52.41188 9.94480 35310 ft 444 kts 355°
2026-04-20 16:22 52.44220 9.93636 34042 ft 441 kts 348°
2026-04-20 16:22 52.47217 9.92580 32409 ft 441 kts 349°
2026-04-20 16:22 52.50222 9.91536 30715 ft 442 kts 350°
2026-04-20 16:22 52.53245 9.90509 28722 ft 445 kts 350°
2026-04-20 16:23 52.56283 9.89498 26628 ft 447 kts 350°
2026-04-20 16:23 52.59318 9.88503 24681 ft 444 kts 351°
2026-04-20 16:23 52.62334 9.87519 22744 ft 439 kts 350°
2026-04-20 16:23 52.65294 9.86543 20918 ft 429 kts 350°
2026-04-20 16:24 52.68186 9.85579 19206 ft 419 kts 350°
2026-04-20 16:24 52.71004 9.84631 17800 ft 405 kts 350°
2026-04-20 16:24 52.73646 9.83733 17399 ft 368 kts 351°
2026-04-20 16:24 52.76107 9.82901 17216 ft 362 kts 351°
2026-04-20 16:25 52.78590 9.82074 16733 ft 365 kts 351°
2026-04-20 16:25 52.81078 9.81245 16230 ft 363 kts 351°
2026-04-20 16:25 52.83547 9.80421 15715 ft 361 kts 351°
2026-04-20 16:25 52.85999 9.79603 15200 ft 358 kts 351°
2026-04-20 16:26 52.88435 9.78788 14673 ft 356 kts 351°
2026-04-20 16:26 52.90852 9.77975 14151 ft 353 kts 351°
2026-04-20 16:26 52.93250 9.77165 13565 ft 350 kts 352°
2026-04-20 16:26 52.95628 9.76362 13020 ft 349 kts 351°
2026-04-20 16:27 52.98000 9.75559 12460 ft 346 kts 351°
2026-04-20 16:27 53.00353 9.74761 11898 ft 344 kts 352°
2026-04-20 16:27 53.02689 9.73968 11337 ft 342 kts 352°
2026-04-20 16:27 53.04965 9.73194 10994 ft 331 kts 351°
2026-04-20 16:28 53.07163 9.72441 10877 ft 314 kts 352°
2026-04-20 16:28 53.09250 9.71725 10749 ft 299 kts 352°
2026-04-20 16:28 53.11255 9.71042 10511 ft 290 kts 352°
2026-04-20 16:28 53.13214 9.70377 10273 ft 286 kts 352°
2026-04-20 16:29 53.15160 9.69719 10067 ft 285 kts 352°
2026-04-20 16:29 53.17104 9.69064 9943 ft 285 kts 352°
2026-04-20 16:29 53.19049 9.68405 9807 ft 285 kts 353°
2026-04-20 16:29 53.20984 9.67743 9675 ft 284 kts 352°
2026-04-20 16:30 53.22917 9.67080 9532 ft 283 kts 352°
2026-04-20 16:30 53.24849 9.66420 9219 ft 283 kts 352°
2026-04-20 16:30 53.26776 9.65764 8754 ft 282 kts 353°
2026-04-20 16:30 53.28700 9.65107 8297 ft 282 kts 353°
2026-04-20 16:31 53.30612 9.64450 7876 ft 280 kts 351°
2026-04-20 16:31 53.32512 9.63795 7473 ft 279 kts 352°
2026-04-20 16:31 53.34410 9.63142 7122 ft 276 kts 353°
2026-04-20 16:31 53.36278 9.62495 6689 ft 272 kts 353°
2026-04-20 16:32 53.38114 9.61856 6026 ft 265 kts 353°
2026-04-20 16:32 53.39857 9.61248 5785 ft 246 kts 353°
2026-04-20 16:32 53.41480 9.60727 5596 ft 234 kts 358°
2026-04-20 16:32 53.43170 9.60973 5561 ft 249 kts 18°
2026-04-20 16:33 53.44689 9.62240 5394 ft 240 kts 41°
2026-04-20 16:33 53.45816 9.64231 5109 ft 233 kts 51°
2026-04-20 16:33 53.46851 9.66303 4798 ft 230 kts 51°
2026-04-20 16:33 53.47874 9.68348 4483 ft 227 kts 51°
2026-04-20 16:34 53.48880 9.70358 4166 ft 223 kts 51°
2026-04-20 16:34 53.49870 9.72338 3871 ft 220 kts 51°
2026-04-20 16:34 53.50845 9.74288 3568 ft 216 kts 52°
2026-04-20 16:34 53.51801 9.76203 3272 ft 212 kts 52°
2026-04-20 16:35 53.52738 9.78082 3006 ft 205 kts 51°
2026-04-20 16:35 53.53640 9.79890 2708 ft 199 kts 52°
2026-04-20 16:35 53.54507 9.81629 2445 ft 187 kts 51°
2026-04-20 16:35 53.55298 9.83220 2197 ft 162 kts 51°
2026-04-20 16:36 53.55966 9.84561 1979 ft 138 kts 50°
2026-04-20 16:36 53.56363 9.85361 1858 ft 131 kts 50°
2026-04-20 16:36 53.56936 9.86514 1684 ft 127 kts 50°
2026-04-20 16:36 53.57498 9.87645 1503 ft 125 kts 50°
2026-04-20 16:37 53.58056 9.88768 1330 ft 124 kts 49°
2026-04-20 16:37 53.58614 9.89893 1131 ft 124 kts 50°
2026-04-20 16:37 53.59166 9.91006 963 ft 125 kts 50°
2026-04-20 16:37 53.59899 9.92484 733 ft 126 kts 50°
2026-04-20 16:38 53.60280 9.93254 625 ft 125 kts 50°
2026-04-20 16:38 53.60836 9.94375 462 ft 122 kts 51°
2026-04-20 16:38 53.61396 9.95508 264 ft 124 kts 49°
2026-04-20 16:38 53.61962 9.96645 100 ft 127 kts 50°
2026-04-20 16:39 53.62495 9.97719 42 ft 105 kts 49°
2026-04-20 16:39 53.62859 9.98464 44 ft 64 kts 50°
2026-04-20 16:39 53.63098 9.98945 46 ft 45 kts 50°
2026-04-20 16:39 53.63269 9.99307 47 ft 27 kts 62°
2026-04-20 16:40 53.63289 9.99533 47 ft 4 kts 97°
2026-04-20 16:40 53.63289 9.99536 47 ft 0 kts 98°
2026-04-20 16:40 53.63289 9.99538 47 ft 1 kts 98°
2026-04-20 16:40 53.63283 9.99606 48 ft 10 kts 99°
2026-04-20 16:41 53.63280 9.99756 49 ft 14 kts 62°
2026-04-20 16:41 53.63343 9.99894 49 ft 16 kts 49°
2026-04-20 16:41 53.63414 10.00034 49 ft 13 kts 51°
2026-04-20 16:41 53.63418 10.00150 49 ft 9 kts 112°
2026-04-20 16:42 53.63363 10.00221 49 ft 11 kts 162°
2026-04-20 16:42 53.63329 10.00297 49 ft 9 kts 91°
2026-04-20 16:42 53.63330 10.00333 49 ft 2 kts 85°
2026-04-20 16:42 53.63331 10.00356 49 ft 2 kts 86°
2026-04-20 16:43 53.63331 10.00358 49 ft 0 kts 86°